JAL296 RJFF-ROAH

Flight info

Callsign JAL296
Flight time 0h 59m
Altitude 34000
Route YAMGA VEMRA Y506 HKC Y45 ONC Y525 IHEYA
Aircraft B738/M-SDE2E3FGHIRWXY/LB1

Departure

Time 2026-04-28 06:37
Airport Fukuoka Airport (RJFF)

Arrival

Time 2026-04-28 07:36
Airport Naha International Airport (ROAH)
Time Latitude Longitude Altitude Speed Heading
2026-04-28 06:15 33.59979 130.44539 28 ft 0 kts 60°
2026-04-28 06:27 33.59972 130.44524 28 ft 4 kts 66°
2026-04-28 06:28 33.59964 130.44494 29 ft 4 kts 83°
2026-04-28 06:28 33.59965 130.44464 28 ft 4 kts 120°
2026-04-28 06:28 33.59975 130.44450 28 ft 1 kts 150°
2026-04-28 06:28 33.59978 130.44448 29 ft 0 kts 150°
2026-04-28 06:31 33.59976 130.44449 28 ft 2 kts 150°
2026-04-28 06:31 33.59933 130.44479 25 ft 11 kts 150°
2026-04-28 06:31 33.59861 130.44528 25 ft 12 kts 151°
2026-04-28 06:31 33.59790 130.44576 26 ft 12 kts 150°
2026-04-28 06:32 33.59719 130.44625 25 ft 12 kts 150°
2026-04-28 06:32 33.59635 130.44681 26 ft 16 kts 150°
2026-04-28 06:32 33.59522 130.44759 26 ft 21 kts 150°
2026-04-28 06:32 33.59380 130.44842 29 ft 24 kts 165°
2026-04-28 06:33 33.59205 130.44880 25 ft 26 kts 155°
2026-04-28 06:33 33.59055 130.44979 25 ft 24 kts 150°
2026-04-28 06:33 33.58913 130.45075 28 ft 23 kts 150°
2026-04-28 06:33 33.58774 130.45170 26 ft 23 kts 150°
2026-04-28 06:34 33.58628 130.45269 27 ft 25 kts 150°
2026-04-28 06:34 33.58481 130.45370 29 ft 24 kts 150°
2026-04-28 06:34 33.58342 130.45464 30 ft 23 kts 150°
2026-04-28 06:34 33.58206 130.45557 32 ft 23 kts 150°
2026-04-28 06:35 33.58071 130.45649 34 ft 22 kts 150°
2026-04-28 06:35 33.57938 130.45740 37 ft 21 kts 150°
2026-04-28 06:35 33.57810 130.45827 41 ft 21 kts 150°
2026-04-28 06:35 33.57687 130.45815 42 ft 20 kts 232°
2026-04-28 06:36 33.57704 130.45675 41 ft 19 kts 328°
2026-04-28 06:36 33.57844 130.45578 41 ft 43 kts 330°
2026-04-28 06:36 33.58328 130.45247 32 ft 114 kts 330°
2026-04-28 06:36 33.59192 130.44671 137 ft 160 kts 332°
2026-04-28 06:37 33.60179 130.44027 824 ft 168 kts 329°
2026-04-28 06:37 33.61219 130.43312 1509 ft 176 kts 325°
2026-04-28 06:37 33.62294 130.42564 2102 ft 190 kts 325°
2026-04-28 06:37 33.63523 130.41708 2358 ft 217 kts 325°
2026-04-28 06:38 33.65018 130.41026 2641 ft 245 kts 354°
2026-04-28 06:38 33.66179 130.41212 2793 ft 267 kts 19°
2026-04-28 06:38 33.67650 130.42624 3394 ft 278 kts 58°
2026-04-28 06:38 33.68533 130.44684 4307 ft 280 kts 63°
2026-04-28 06:39 33.69272 130.47661 5284 ft 290 kts 95°
2026-04-28 06:39 33.68962 130.49242 5778 ft 291 kts 118°
2026-04-28 06:39 33.67205 130.51675 6776 ft 289 kts 151°
2026-04-28 06:39 33.66075 130.52496 7356 ft 288 kts 155°
2026-04-28 06:40 33.64307 130.53670 8119 ft 291 kts 158°
2026-04-28 06:40 33.62473 130.54671 9015 ft 289 kts 163°
2026-04-28 06:40 33.60629 130.55563 9867 ft 289 kts 164°
2026-04-28 06:40 33.58739 130.56464 10455 ft 300 kts 165°
2026-04-28 06:41 33.56716 130.57429 10651 ft 325 kts 164°
2026-04-28 06:41 33.54545 130.58487 10851 ft 348 kts 163°
2026-04-28 06:41 33.52272 130.59630 11376 ft 358 kts 162°
2026-04-28 06:41 33.49966 130.60800 12116 ft 360 kts 163°
2026-04-28 06:42 33.47677 130.61953 12779 ft 364 kts 163°
2026-04-28 06:42 33.45327 130.63131 13450 ft 368 kts 163°
2026-04-28 06:42 33.42940 130.64278 14071 ft 370 kts 167°
2026-04-28 06:42 33.40470 130.65169 14640 ft 371 kts 172°
2026-04-28 06:43 33.37958 130.65948 15206 ft 375 kts 173°
2026-04-28 06:43 33.35419 130.66733 15774 ft 380 kts 172°
2026-04-28 06:43 33.32851 130.67564 16339 ft 385 kts 172°
2026-04-28 06:43 33.30258 130.68429 16878 ft 389 kts 172°
2026-04-28 06:44 33.27640 130.69313 17444 ft 393 kts 172°
2026-04-28 06:44 33.24998 130.70206 18016 ft 396 kts 172°
2026-04-28 06:44 33.22326 130.71108 18464 ft 402 kts 172°
2026-04-28 06:44 33.19625 130.72021 18943 ft 404 kts 172°
2026-04-28 06:45 33.16913 130.72937 19462 ft 406 kts 172°
2026-04-28 06:45 33.14188 130.73859 19961 ft 408 kts 173°
2026-04-28 06:45 33.11445 130.74773 20455 ft 409 kts 174°
2026-04-28 06:45 33.08679 130.75151 20905 ft 393 kts 193°
2026-04-28 06:46 33.05988 130.74747 21375 ft 391 kts 195°
2026-04-28 06:46 33.03278 130.74369 21778 ft 395 kts 194°
2026-04-28 06:46 33.00525 130.74022 22175 ft 399 kts 194°
2026-04-28 06:46 32.97753 130.73691 22648 ft 401 kts 194°
2026-04-28 06:47 32.94976 130.73362 23089 ft 403 kts 194°
2026-04-28 06:47 32.92178 130.73028 23493 ft 405 kts 194°
2026-04-28 06:47 32.89356 130.72686 23820 ft 408 kts 194°
2026-04-28 06:47 32.86516 130.72336 24065 ft 413 kts 194°
2026-04-28 06:48 32.83647 130.71981 24370 ft 416 kts 194°
2026-04-28 06:48 32.80764 130.71626 24713 ft 417 kts 194°
2026-04-28 06:48 32.77868 130.71271 25042 ft 419 kts 194°
2026-04-28 06:48 32.74955 130.70913 25352 ft 422 kts 194°
2026-04-28 06:49 32.72024 130.70553 25663 ft 425 kts 194°
2026-04-28 06:49 32.69075 130.70192 25934 ft 427 kts 194°
2026-04-28 06:49 32.66109 130.69825 26213 ft 430 kts 194°
2026-04-28 06:49 32.63119 130.69460 26496 ft 433 kts 194°
2026-04-28 06:50 32.60115 130.69095 26794 ft 435 kts 194°
2026-04-28 06:50 32.57097 130.68728 27079 ft 437 kts 194°
2026-04-28 06:50 32.54065 130.68358 27358 ft 439 kts 194°
2026-04-28 06:50 32.51016 130.67987 27663 ft 441 kts 194°
2026-04-28 06:51 32.47954 130.67614 27859 ft 444 kts 193°
2026-04-28 06:51 32.44875 130.67238 28118 ft 446 kts 193°
2026-04-28 06:51 32.41788 130.66864 28501 ft 446 kts 193°
2026-04-28 06:51 32.38684 130.66487 28688 ft 450 kts 193°
2026-04-28 06:52 32.35613 130.66114 29076 ft 448 kts 193°
2026-04-28 06:52 32.32505 130.65738 29404 ft 449 kts 193°
2026-04-28 06:52 32.29400 130.65362 29796 ft 448 kts 193°
2026-04-28 06:52 32.26307 130.64987 30160 ft 447 kts 193°
2026-04-28 06:53 32.23206 130.64617 30376 ft 448 kts 193°
2026-04-28 06:53 32.20113 130.64248 30776 ft 445 kts 193°
2026-04-28 06:53 32.17023 130.63877 31003 ft 447 kts 193°
2026-04-28 06:53 32.13938 130.63505 31341 ft 445 kts 193°
2026-04-28 06:54 32.10861 130.63137 31697 ft 443 kts 193°
2026-04-28 06:54 32.07794 130.62770 31984 ft 443 kts 193°
2026-04-28 06:54 32.04715 130.62401 32202 ft 445 kts 193°
2026-04-28 06:54 32.01640 130.62034 32511 ft 444 kts 193°
2026-04-28 06:55 31.98585 130.61671 32830 ft 443 kts 193°
2026-04-28 06:55 31.95519 130.61308 33084 ft 443 kts 193°
2026-04-28 06:55 31.92457 130.60949 33315 ft 444 kts 193°
2026-04-28 06:55 31.89373 130.60591 33608 ft 443 kts 193°
2026-04-28 06:56 31.86302 130.60234 33928 ft 442 kts 193°
2026-04-28 06:56 31.80142 130.59514 33999 ft 446 kts 193°
2026-04-28 06:57 31.73984 130.58800 33998 ft 443 kts 193°
2026-04-28 06:57 31.67987 130.57618 34004 ft 429 kts 206°
2026-04-28 06:58 31.62458 130.55025 34010 ft 430 kts 208°
2026-04-28 06:58 31.56895 130.52475 34005 ft 434 kts 207°
2026-04-28 06:59 31.51224 130.49990 34006 ft 436 kts 207°
2026-04-28 06:59 31.42233 130.46055 33992 ft 436 kts 207°
2026-04-28 07:00 31.19621 130.35957 34014 ft 434 kts 208°
2026-04-28 07:00 30.97292 130.25443 33998 ft 433 kts 207°
2026-04-28 07:01 30.74936 130.15068 34003 ft 432 kts 207°
2026-04-28 07:01 30.52601 130.04772 34024 ft 432 kts 207°
2026-04-28 07:02 30.30531 129.94851 34017 ft 433 kts 205°
2026-04-28 07:02 30.07828 129.85488 34019 ft 432 kts 205°
2026-04-28 07:03 29.85461 129.75568 34004 ft 430 kts 207°
2026-04-28 07:03 29.63227 129.65325 34020 ft 430 kts 207°
2026-04-28 07:04 29.40984 129.55170 34012 ft 431 kts 207°
2026-04-28 07:04 29.18432 129.45617 34029 ft 433 kts 205°
2026-04-28 07:05 28.95784 129.36404 34029 ft 432 kts 206°
2026-04-28 07:05 28.81526 129.30095 34030 ft 431 kts 206°
2026-04-28 07:06 28.75927 129.27631 34029 ft 431 kts 206°
2026-04-28 07:06 28.70326 129.25182 34030 ft 431 kts 206°
2026-04-28 07:07 28.52646 129.17472 34038 ft 430 kts 206°
2026-04-28 07:07 28.11228 128.99444 34027 ft 430 kts 206°
2026-04-28 07:08 28.05705 128.96903 34001 ft 423 kts 207°
2026-04-28 07:08 28.02998 128.95643 33672 ft 418 kts 207°
2026-04-28 07:08 28.00335 128.94417 33356 ft 410 kts 207°
2026-04-28 07:08 27.97712 128.93216 32985 ft 406 kts 207°
2026-04-28 07:09 27.95104 128.92029 32585 ft 403 kts 206°
2026-04-28 07:09 27.92515 128.90853 32198 ft 399 kts 206°
2026-04-28 07:09 27.89940 128.89686 31806 ft 396 kts 206°
2026-04-28 07:09 27.87377 128.88557 31405 ft 394 kts 207°
2026-04-28 07:10 27.84973 128.87115 30856 ft 390 kts 219°
2026-04-28 07:10 27.82885 128.85192 30369 ft 386 kts 227°
2026-04-28 07:10 27.80950 128.83104 29971 ft 383 kts 227°
2026-04-28 07:10 27.79026 128.81037 29548 ft 380 kts 226°
2026-04-28 07:11 27.77113 128.78991 29114 ft 377 kts 226°
2026-04-28 07:11 27.75214 128.76964 28673 ft 374 kts 227°
2026-04-28 07:11 27.73384 128.74890 28237 ft 371 kts 229°
2026-04-28 07:11 27.71608 128.72785 27809 ft 369 kts 229°
2026-04-28 07:12 27.69861 128.70688 27396 ft 366 kts 229°
2026-04-28 07:12 27.68120 128.68601 26983 ft 364 kts 229°
2026-04-28 07:12 27.66383 128.66528 26580 ft 362 kts 229°
2026-04-28 07:12 27.64651 128.64472 26183 ft 360 kts 229°
2026-04-28 07:13 27.62929 128.62436 25785 ft 359 kts 229°
2026-04-28 07:13 27.61230 128.60432 25402 ft 357 kts 229°
2026-04-28 07:13 27.59519 128.58418 24995 ft 356 kts 229°
2026-04-28 07:13 27.57805 128.56402 24540 ft 356 kts 228°
2026-04-28 07:14 27.56088 128.54384 24100 ft 357 kts 228°
2026-04-28 07:14 27.54369 128.52365 23663 ft 357 kts 228°
2026-04-28 07:14 27.52648 128.50346 23154 ft 357 kts 228°
2026-04-28 07:14 27.50927 128.48327 22631 ft 357 kts 228°
2026-04-28 07:15 27.49216 128.46322 22235 ft 351 kts 228°
2026-04-28 07:15 27.47532 128.44351 21864 ft 347 kts 228°
2026-04-28 07:15 27.45871 128.42406 21501 ft 344 kts 228°
2026-04-28 07:15 27.44209 128.40460 21137 ft 341 kts 228°
2026-04-28 07:16 27.42573 128.38546 20775 ft 339 kts 228°
2026-04-28 07:16 27.40944 128.36641 20418 ft 336 kts 228°
2026-04-28 07:16 27.39326 128.34749 20061 ft 334 kts 228°
2026-04-28 07:16 27.37742 128.32899 19714 ft 332 kts 228°
2026-04-28 07:17 27.36138 128.31025 19351 ft 331 kts 228°
2026-04-28 07:17 27.34546 128.29166 19004 ft 329 kts 228°
2026-04-28 07:17 27.32957 128.27311 18640 ft 328 kts 228°
2026-04-28 07:17 27.31375 128.25466 18274 ft 327 kts 228°
2026-04-28 07:18 27.29819 128.23652 17887 ft 326 kts 228°
2026-04-28 07:18 27.28250 128.21823 17518 ft 324 kts 228°
2026-04-28 07:18 27.26690 128.20007 17164 ft 322 kts 227°
2026-04-28 07:18 27.25139 128.18200 16821 ft 319 kts 227°
2026-04-28 07:19 27.23601 128.16411 16472 ft 318 kts 227°
2026-04-28 07:19 27.22069 128.14627 16131 ft 316 kts 227°
2026-04-28 07:19 27.20547 128.12858 15788 ft 314 kts 227°
2026-04-28 07:19 27.19036 128.11101 15448 ft 312 kts 227°
2026-04-28 07:20 27.17527 128.09347 15112 ft 311 kts 227°
2026-04-28 07:20 27.16029 128.07607 14779 ft 310 kts 227°
2026-04-28 07:20 27.14533 128.05870 14444 ft 309 kts 227°
2026-04-28 07:20 27.13041 128.04138 14087 ft 309 kts 227°
2026-04-28 07:21 27.11551 128.02410 13740 ft 308 kts 227°
2026-04-28 07:21 27.10061 128.00681 13379 ft 307 kts 227°
2026-04-28 07:21 27.08627 127.99019 13037 ft 305 kts 227°
2026-04-28 07:22 27.05689 127.95614 12364 ft 302 kts 227°
2026-04-28 07:22 27.04234 127.93930 12041 ft 300 kts 227°
2026-04-28 07:22 27.02780 127.92247 11715 ft 299 kts 227°
2026-04-28 07:22 27.01326 127.90592 11389 ft 298 kts 223°
2026-04-28 07:23 26.99616 127.89342 10992 ft 301 kts 208°
2026-04-28 07:23 26.97739 127.88304 10645 ft 301 kts 208°
2026-04-28 07:23 26.95870 127.87266 10373 ft 297 kts 208°
2026-04-28 07:23 26.94048 127.86247 10253 ft 289 kts 208°
2026-04-28 07:24 26.92283 127.85255 10110 ft 279 kts 208°
2026-04-28 07:24 26.90564 127.84283 9880 ft 276 kts 208°
2026-04-28 07:24 26.88856 127.83314 9586 ft 274 kts 208°
2026-04-28 07:24 26.87159 127.82350 9296 ft 273 kts 208°
2026-04-28 07:25 26.86017 127.81700 9098 ft 272 kts 208°
2026-04-28 07:25 26.83795 127.80437 8723 ft 270 kts 208°
2026-04-28 07:25 26.82669 127.79796 8537 ft 269 kts 208°
2026-04-28 07:25 26.81005 127.78849 8255 ft 267 kts 208°
2026-04-28 07:26 26.78829 127.77612 7894 ft 266 kts 207°
2026-04-28 07:26 26.77718 127.76980 7705 ft 265 kts 207°
2026-04-28 07:26 26.76078 127.76048 7435 ft 264 kts 207°
2026-04-28 07:26 26.74465 127.75130 7164 ft 263 kts 207°
2026-04-28 07:27 26.72841 127.74207 6898 ft 262 kts 207°
2026-04-28 07:27 26.71212 127.73282 6696 ft 262 kts 207°
2026-04-28 07:27 26.69590 127.72362 6403 ft 262 kts 207°
2026-04-28 07:27 26.67964 127.71440 6107 ft 262 kts 207°
2026-04-28 07:28 26.66342 127.70520 5821 ft 261 kts 207°
2026-04-28 07:28 26.64725 127.69605 5507 ft 261 kts 207°
2026-04-28 07:28 26.63108 127.68690 5227 ft 260 kts 207°
2026-04-28 07:28 26.61499 127.67781 4951 ft 259 kts 207°
2026-04-28 07:29 26.59890 127.66870 4672 ft 258 kts 207°
2026-04-28 07:29 26.58288 127.65964 4390 ft 258 kts 207°
2026-04-28 07:29 26.56691 127.65061 4096 ft 257 kts 206°
2026-04-28 07:29 26.55101 127.64162 3825 ft 256 kts 206°
2026-04-28 07:30 26.53518 127.63268 3556 ft 255 kts 206°
2026-04-28 07:30 26.51940 127.62377 3298 ft 254 kts 206°
2026-04-28 07:30 26.50369 127.61502 3120 ft 248 kts 202°
2026-04-28 07:30 26.48719 127.61198 2979 ft 238 kts 175°
2026-04-28 07:31 26.47098 127.61356 2882 ft 230 kts 175°
2026-04-28 07:31 26.45527 127.61484 2771 ft 222 kts 175°
2026-04-28 07:31 26.44005 127.61603 2680 ft 218 kts 175°
2026-04-28 07:31 26.42481 127.61722 2498 ft 222 kts 175°
2026-04-28 07:32 26.40931 127.61844 2318 ft 227 kts 175°
2026-04-28 07:32 26.39320 127.62020 2073 ft 238 kts 172°
2026-04-28 07:32 26.37630 127.62232 1786 ft 252 kts 173°
2026-04-28 07:32 26.35845 127.62475 1474 ft 263 kts 173°
2026-04-28 07:33 26.33997 127.62620 1265 ft 266 kts 177°
2026-04-28 07:33 26.32187 127.62696 1212 ft 253 kts 177°
2026-04-28 07:33 26.30497 127.62767 1172 ft 232 kts 177°
2026-04-28 07:33 26.28958 127.62839 1185 ft 213 kts 176°
2026-04-28 07:34 26.27539 127.62906 1185 ft 195 kts 176°
2026-04-28 07:34 26.26254 127.62966 1169 ft 175 kts 176°
2026-04-28 07:34 26.25058 127.63022 941 ft 167 kts 176°
2026-04-28 07:34 26.23924 127.63075 759 ft 159 kts 178°
2026-04-28 07:35 26.22862 127.63126 572 ft 146 kts 178°
2026-04-28 07:35 26.21869 127.63179 410 ft 143 kts 178°
2026-04-28 07:35 26.20915 127.63222 225 ft 137 kts 179°
2026-04-28 07:35 26.19973 127.63264 46 ft 133 kts 178°
2026-04-28 07:36 26.19177 127.63296 26 ft 86 kts 178°
2026-04-28 07:36 26.18802 127.63313 26 ft 31 kts 178°
2026-04-28 07:36 26.18578 127.63337 28 ft 32 kts 166°
2026-04-28 07:36 26.18439 127.63402 28 ft 19 kts 145°
2026-04-28 07:37 26.18373 127.63478 28 ft 12 kts 91°
2026-04-28 07:37 26.18438 127.63521 28 ft 12 kts 359°
2026-04-28 07:37 26.18522 127.63518 28 ft 13 kts 358°
2026-04-28 07:37 26.18636 127.63513 28 ft 20 kts 358°
2026-04-28 07:38 26.18786 127.63506 27 ft 23 kts 357°
2026-04-28 07:38 26.18963 127.63497 27 ft 28 kts 357°
2026-04-28 07:38 26.19165 127.63488 27 ft 30 kts 358°
2026-04-28 07:38 26.19369 127.63478 28 ft 28 kts 357°
2026-04-28 07:39 26.19561 127.63469 28 ft 27 kts 358°
2026-04-28 07:39 26.19740 127.63461 28 ft 25 kts 358°
2026-04-28 07:39 26.19908 127.63452 28 ft 23 kts 357°
2026-04-28 07:39 26.20067 127.63445 28 ft 22 kts 357°
2026-04-28 07:40 26.20209 127.63438 27 ft 18 kts 357°
2026-04-28 07:40 26.20300 127.63494 27 ft 17 kts 79°
2026-04-28 07:40 26.20306 127.63621 27 ft 16 kts 87°
2026-04-28 07:40 26.20311 127.63745 27 ft 17 kts 88°
2026-04-28 07:41 26.20316 127.63888 27 ft 21 kts 88°
2026-04-28 07:41 26.20322 127.64063 27 ft 24 kts 88°
2026-04-28 07:41 26.20330 127.64243 27 ft 23 kts 87°
2026-04-28 07:41 26.20336 127.64414 28 ft 22 kts 87°
2026-04-28 07:42 26.20343 127.64583 27 ft 21 kts 88°
2026-04-28 07:42 26.20348 127.64724 27 ft 14 kts 88°
2026-04-28 07:42 26.20395 127.64811 27 ft 12 kts 47°
2026-04-28 07:42 26.20435 127.64859 27 ft 2 kts 47°
2026-04-28 07:43 26.20438 127.64863 27 ft 0 kts 47°